This is the latest recevied weather packets stored in our database for station/object SP5IZJ-2. If no packets are shown the sender has not sent any weather packets the latest 10 day(s).
| Time | Temp. | Humidity | Pressure | Rain* | Wind** | Luminosity | Snow |
|---|---|---|---|---|---|---|---|
| 1777388485 | 11.11° C | 35% | 1016.6 hPa | 0 mm | - | - | - |
| 1777387645 | 10.56° C | 34% | 1016.8 hPa | 0 mm | - | - | - |
| 1777386810 | 10.56° C | 34% | 1016.9 hPa | 0 mm | - | - | - |
| 1777386390 | 10.56° C | 34% | 1016.8 hPa | 0 mm | - | - | - |
| 1777385966 | 11.11° C | 34% | 1016.9 hPa | 0 mm | - | - | - |
| 1777385127 | 12.78° C | 31% | 1017 hPa | 0 mm | - | - | - |
| 1777384287 | 13.33° C | 32% | 1016.9 hPa | 0 mm | - | - | - |
| 1777382619 | 11.67° C | 34% | 1017.3 hPa | 0 mm | - | - | - |
| 1777382188 | 12.22° C | 33% | 1017.4 hPa | 0 mm | - | - | - |
| 1777381356 | 14.44° C | 30% | 1017.3 hPa | 0 mm | - | - | - |
| 1777380524 | 14.44° C | 32% | 1017.3 hPa | 0 mm | - | - | - |
| 1777380133 | 13.33° C | 33% | 1017.4 hPa | 0 mm | - | - | - |
| 1777378874 | 13.33° C | 33% | 1017.6 hPa | 0 mm | - | - | - |
| 1777378409 | 11.67° C | 35% | 1017.5 hPa | 0 mm | - | - | - |
| 1777378001 | 11.11° C | 34% | 1017.7 hPa | 0 mm | - | - | - |
| 1777377570 | 11.67° C | 34% | 1017.6 hPa | 0 mm | - | - | - |
| 1777377150 | 12.22° C | 33% | 1017.7 hPa | 0 mm | - | - | - |
| 1777376730 | 12.78° C | 33% | 1017.7 hPa | 0 mm | - | - | - |
| 1777375073 | 11.67° C | 33% | 1017.9 hPa | 0 mm | - | - | - |
| 1777374211 | 14.44° C | 31% | 1017.8 hPa | 0 mm | - | - | - |
| 1777372959 | 11.11° C | 35% | 1017.9 hPa | 0 mm | - | - | - |
| 1777372539 | 11.11° C | 34% | 1018 hPa | 0 mm | - | - | - |
| 1777372112 | 11.67° C | 34% | 1018 hPa | 0 mm | - | - | - |
| 1777371696 | 11.11° C | 33% | 1017.9 hPa | 0 mm | - | - | - |
| 1777370852 | 13.33° C | 30% | 1018 hPa | 0 mm | - | - | - |
* Rain latest hour (hover to see other rain measurements)
** Current wind speed in m/s (hover to see current wind gust speed)